{"data":{"norad_id":56155,"intl_designator":"2023-047C","name":"PIESAT C","alt_names":[],"object_type":"PAYLOAD","status":"ACTIVE","operator":null,"country":"PRC","launch_date":"2023-03-30","launch_site_code":"TAISC","launch_vehicle":null,"mission":null,"orbit_class":"UNKNOWN","rcs_meters":null,"size_class":null,"mass_kg":null,"dimensions":null,"purposes":[],"wikipedia_slug":null,"has_3d_model":false,"image_url":null,"decayed_at":null,"tle_current":{"epoch":"2026-05-24T11:57:47.801952Z","epoch_age_seconds":112232,"freshness":"FRESH","line1":"1 56155U 23047C   26144.49846993  .00001168  00000+0  67370-4 0  9999","line2":"2 56155  97.5017 331.9849 0001645 118.2524 241.8874 15.14305980174214","mean_motion":15.1430598,"eccentricity":0.0001645,"inclination_deg":97.5017,"raan_deg":331.9849,"arg_perigee_deg":118.2524,"mean_anomaly_deg":241.8874,"bstar":6.737e-5,"rev_number":17421,"period_min":95.093066990332,"perigee_km":521.95109880131,"apogee_km":524.22160128347,"semimajor_km":6901.2233500424,"source":"CELESTRAK","updated_at":"2026-05-25T13:37:59.365674Z"}}}